(67639) = 1996 HK6 = 1999 CA13 = 2000 SE216

Discovered at Socorro on 2000-09-26 by LINEAR.

Orbit

Orbit type: Main Belt

Note: WebGL enabled browser required.

epoch2023-09-13.0
epoch JD2460200.5
perihelion date2023-08-25.19836
perihelion JD2460181.69836
argument of perihelion (°)81.63779
ascending node (°)185.79536
inclination (°)5.91145
eccentricity0.2116565
perihelion distance (AU)1.7741981
Tisserand w.r.t. Jupiter3.6
ΔV w.r.t. Earth (km/sec)8.4
semimajor axis (AU)2.2505394
mean anomaly (°)5.48870
mean daily motion (°/day)0.29192680
aphelion distance (AU)2.727
period (years)3.38
P-vector [x]-0.04531621
P-vector [y]-0.95229116
P-vector [z]-0.30180786
Q-vector [x]0.99891856
Q-vector [y]-0.04634141
Q-vector [z]-0.00376626
absolute magnitude16.38
phase slope0.15
uncertainty0
referenceMPEC 2024-A48
observations used1127
oppositions18
arc length (days)11486
first opposition used1992
last opposition used2023
residual rms (arc-secs)0.66
perturbers coarse indicatorM-v
perturbers precise indicator003Ek
first observation date used1992-01-29.0
last observation date used2023-07-11.0
computer nameMPCLINUX
JD of orbit computation2456966.915111
perihelion JD uncertainty (days)3.7607E-05
argument of perihelion uncertainty (°)3.4103E-05
ascending node uncertainty (°)3.1126E-05
inclination uncertainty (°)4.7255E-06
eccentricity uncertainty 2.8493E-08
perihelion distance uncertainty (AU)6.3334E-08
Minimum Orbit Intersection Distances (in AU)
for orbit epoch: 2460200.5, reference: E2024-A48
Mercury1.31778
Venus1.05514
Earth0.76983
Mars0.31259
Jupiter2.37498
Saturn6.33906
Uranus16.0272
Neptune27.2421

Observations

1141 total observations over interval: 1992 01 29.31167 – 2023 07 11.777583
These data are available for download (format description).

Date (UT) J2000 RA J2000 Dec Magn Location Ref
1992 01 29.31167 08 11 23.36 +11 28 17.9 20.7 V 691 – Steward Observatory, Kitt Peak-Spacewatch MPS 78006
1992 01 29.32194 08 11 22.67 +11 28 21.4 21.4 V 691 – Steward Observatory, Kitt Peak-Spacewatch MPS 78006
1992 01 29.33025 08 11 22.10 +11 28 23.7 21.7 V 691 – Steward Observatory, Kitt Peak-Spacewatch MPS 78006
1993 06 16.37663 22 00 55.88 -03 06 14.2 19.6 V 691 – Steward Observatory, Kitt Peak-Spacewatch MPS 26681
1993 06 16.40844 22 00 57.28 -03 06 02.3   691 – Steward Observatory, Kitt Peak-Spacewatch MPS 26681
1993 06 16.44009 22 00 58.63 -03 05 51.1   691 – Steward Observatory, Kitt Peak-Spacewatch MPS 26681
1996 03 27.29097 14 43 15.55 -12 05 14.5   809 – European Southern Observatory, La Silla MPS 20654
1996 03 27.30278 14 43 15.44 -12 05 09.6   809 – European Southern Observatory, La Silla MPS 20654
1996 03 27.31458 14 43 15.33 -12 05 04.7   809 – European Southern Observatory, La Silla MPS 20654
1996 04 17.36480 14 34 18.04 -09 13 58.3   691 – Steward Observatory, Kitt Peak-Spacewatch MPC 27237
1996 04 17.38651 14 34 17.11 -09 13 45.7 18.4 V 691 – Steward Observatory, Kitt Peak-Spacewatch MPC 27237
1996 04 17.40812 14 34 16.13 -09 13 33.6   691 – Steward Observatory, Kitt Peak-Spacewatch MPC 27237
1996 04 21.35788 14 31 19.79 -08 35 39.8   691 – Steward Observatory, Kitt Peak-Spacewatch MPC 27237
1996 04 21.37909 14 31 18.74 -08 35 27.5 18.3 V 691 – Steward Observatory, Kitt Peak-Spacewatch MPC 27237
1996 04 21.40027 14 31 17.68 -08 35 15.1   691 – Steward Observatory, Kitt Peak-Spacewatch MPC 27237
1999 02 14.92663 10 11 10.26 +04 51 48.9 19.4 V 910 – Caussols-ODAS MPS 3890
1999 02 14.94956 10 11 08.90 +04 51 58.5 20.1 V 910 – Caussols-ODAS MPS 3890
1999 02 14.97390 10 11 07.42 +04 52 09.2 19.8 V 910 – Caussols-ODAS MPS 3890
1999 02 16.01313 10 10 05.98 +04 59 38.5 19.8 V 910 – Caussols-ODAS MPS 3890
1999 02 16.03683 10 10 04.53 +04 59 48.7 19.7 V 910 – Caussols-ODAS MPS 3890
1999 02 16.06287 10 10 02.94 +05 00 00.0 19.6 V 910 – Caussols-ODAS MPS 3890
2000 09 25.45937 00 53 20.84 +05 06 24.6 19.6   608 – Haleakala-AMOS MPS 20147
2000 09 25.47008 00 53 20.23 +05 06 17.6 20.0   608 – Haleakala-AMOS MPS 20147
2000 09 25.48053 00 53 19.62 +05 06 12.4 19.9   608 – Haleakala-AMOS MPS 20147
2000 09 26.32124 00 52 32.93 +04 58 21.1 18.5 R 699 – Lowell Observatory-LONEOS MPS 26681
2000 09 26.32868 00 52 32.41 +04 58 17.0 18.9   704 – Lincoln Laboratory ETS, New Mexico MPS 20147
2000 09 26.33969 00 52 31.79 +04 58 10.6   699 – Lowell Observatory-LONEOS MPS 26681
2000 09 26.34321 00 52 31.56 +04 58 08.9 19.6   704 – Lincoln Laboratory ETS, New Mexico MPS 20147
2000 09 26.35785 00 52 30.79 +04 58 01.0 19.5   704 – Lincoln Laboratory ETS, New Mexico MPS 20147
2000 09 26.35815 00 52 30.76 +04 58 00.4   699 – Lowell Observatory-LONEOS MPS 26681
2000 09 26.37271 00 52 29.79 +04 57 52.3 20.1   704 – Lincoln Laboratory ETS, New Mexico MPS 20147
2000 09 26.37660 00 52 29.69 +04 57 50.0   699 – Lowell Observatory-LONEOS MPS 26681
2000 09 26.38734 00 52 29.00 +04 57 44.4 19.7   704 – Lincoln Laboratory ETS, New Mexico MPS 20147
2000 10 01.24695 00 47 53.81 +04 12 15.7 18.8   704 – Lincoln Laboratory ETS, New Mexico MPS 20147
2000 10 01.26207 00 47 52.86 +04 12 07.1 19.6   704 – Lincoln Laboratory ETS, New Mexico MPS 20147
2000 10 01.27717 00 47 51.99 +04 11 58.3 19.0   704 – Lincoln Laboratory ETS, New Mexico MPS 20147
2000 10 01.29747 00 47 50.78 +04 11 46.9 19.2   704 – Lincoln Laboratory ETS, New Mexico MPS 20147
2000 10 01.31092 00 47 49.94 +04 11 40.3 19.0 R 699 – Lowell Observatory-LONEOS MPS 21345
2000 10 01.31856 00 47 49.52 +04 11 35.3 18.9   704 – Lincoln Laboratory ETS, New Mexico MPS 20147
2000 10 01.33090 00 47 48.87 +04 11 29.7   699 – Lowell Observatory-LONEOS MPS 21345
2000 10 01.35087 00 47 47.64 +04 11 18.0   699 – Lowell Observatory-LONEOS MPS 21345
2000 10 01.37092 00 47 46.41 +04 11 07.3   699 – Lowell Observatory-LONEOS MPS 21345
2000 10 02.38441 00 46 48.57 +04 01 36.1 19.1   704 – Lincoln Laboratory ETS, New Mexico MPS 20147
2000 10 02.39955 00 46 47.64 +04 01 28.1 18.8   704 – Lincoln Laboratory ETS, New Mexico MPS 20147
2000 10 02.41481 00 46 46.68 +04 01 19.2 19.2   704 – Lincoln Laboratory ETS, New Mexico MPS 20147
2000 10 02.42972 00 46 45.85 +04 01 10.9 19.2   704 – Lincoln Laboratory ETS, New Mexico MPS 20147
2000 10 05.24967 00 44 06.03 +03 34 57.2 19.6   704 – Lincoln Laboratory ETS, New Mexico MPS 20147
2000 10 05.28025 00 44 04.18 +03 34 40.4 18.7   704 – Lincoln Laboratory ETS, New Mexico MPS 20147
2000 10 05.29552 00 44 03.28 +03 34 31.3 18.9   704 – Lincoln Laboratory ETS, New Mexico MPS 20147
2000 10 06.26476 00 43 08.69 +03 25 36.0 18.8   704 – Lincoln Laboratory ETS, New Mexico MPS 20147
2000 10 06.28009 00 43 07.77 +03 25 27.8 18.8   704 – Lincoln Laboratory ETS, New Mexico MPS 20147
2000 10 06.29517 00 43 06.93 +03 25 19.6 19.2   704 – Lincoln Laboratory ETS, New Mexico MPS 20147
2000 10 06.31104 00 43 06.01 +03 25 10.5 19.1   704 – Lincoln Laboratory ETS, New Mexico MPS 20147
2000 10 06.32666 00 43 05.06 +03 25 02.6 19.5   704 – Lincoln Laboratory ETS, New Mexico MPS 20147
2003 06 26.31998 19 36 56.56 -08 22 00.3 18.1   704 – Lincoln Laboratory ETS, New Mexico MPS 81404
2003 06 26.32990 19 36 56.15 -08 22 00.4 18.3   704 – Lincoln Laboratory ETS, New Mexico MPS 81404
2003 06 26.33991 19 36 55.75 -08 21 59.9 18.3   704 – Lincoln Laboratory ETS, New Mexico MPS 81404
2003 06 26.34982 19 36 55.35 -08 21 59.8 18.4   704 – Lincoln Laboratory ETS, New Mexico MPS 81404
2003 06 26.35970 19 36 54.90 -08 21 59.3 18.3   704 – Lincoln Laboratory ETS, New Mexico MPS 81404
2003 06 28.29199 19 35 39.66 -08 21 51.3 17.6   704 – Lincoln Laboratory ETS, New Mexico MPS 81882
2003 06 28.30188 19 35 39.20 -08 21 51.9 17.6   704 – Lincoln Laboratory ETS, New Mexico MPS 81882
2003 06 28.31197 19 35 38.74 -08 21 51.7 17.9   704 – Lincoln Laboratory ETS, New Mexico MPS 81882
2003 06 28.32181 19 35 38.33 -08 21 52.2 17.8   704 – Lincoln Laboratory ETS, New Mexico MPS 81882
2003 06 28.33165 19 35 37.89 -08 21 52.3 18.1   704 – Lincoln Laboratory ETS, New Mexico MPS 81882
2003 07 01.32066 19 33 31.50 -08 23 36.8 18.8   704 – Lincoln Laboratory ETS, New Mexico MPS 81882
2003 07 01.33048 19 33 31.08 -08 23 37.4 17.5   704 – Lincoln Laboratory ETS, New Mexico MPS 81882
2003 07 01.34032 19 33 30.58 -08 23 38.1 18.6   704 – Lincoln Laboratory ETS, New Mexico MPS 81882
2003 07 01.35015 19 33 30.12 -08 23 39.1 17.7   704 – Lincoln Laboratory ETS, New Mexico MPS 81882
2003 07 01.36002 19 33 29.64 -08 23 39.5 17.8   704 – Lincoln Laboratory ETS, New Mexico MPS 81882
2003 07 25.26312 19 14 49.44 -09 52 34.3 17.9   704 – Lincoln Laboratory ETS, New Mexico MPS 82387
2003 07 25.27321 19 14 49.04 -09 52 36.6 18.5   704 – Lincoln Laboratory ETS, New Mexico MPS 82387
2003 07 25.28348 19 14 48.59 -09 52 41.9 18.6   704 – Lincoln Laboratory ETS, New Mexico MPS 82387
2003 07 25.29376 19 14 48.00 -09 52 45.4 18.3   704 – Lincoln Laboratory ETS, New Mexico MPS 82387
2003 07 25.30386 19 14 47.66 -09 52 48.3 17.9   704 – Lincoln Laboratory ETS, New Mexico MPS 82387
2006 01 07.47952 12 29 33.96 -06 04 46.5   291 – LPL/Spacewatch II MPS 159678
2006 01 07.48668 12 29 34.35 -06 04 49.5   291 – LPL/Spacewatch II MPS 159678
2006 01 07.49383 12 29 34.75 -06 04 51.0   291 – LPL/Spacewatch II MPS 159678
2006 01 31.467916 12 47 55.540 -07 31 38.89 20.22 V 645 – Apache Point-Sloan Digital Sky Survey MPS 389640
2006 01 31.471388 12 47 55.640 -07 31 39.22 20.86   645 – Apache Point-Sloan Digital Sky Survey MPS 389640
2006 02 24.46053 12 52 21.71 -07 06 32.8 19.3 V 691 – Steward Observatory, Kitt Peak-Spacewatch MPS 164684
2006 02 24.47787 12 52 21.51 -07 06 28.3 19.6 V 691 – Steward Observatory, Kitt Peak-Spacewatch MPS 164684
2006 02 24.49519 12 52 21.30 -07 06 24.2 19.6 V 691 – Steward Observatory, Kitt Peak-Spacewatch MPS 164684
2006 03 03.31720 12 50 29.28 -06 33 46.0 19.3   704 – Lincoln Laboratory ETS, New Mexico MPS 165729
2006 03 03.32877 12 50 29.07 -06 33 40.8 19.3   704 – Lincoln Laboratory ETS, New Mexico MPS 165729
2006 03 03.34040 12 50 28.61 -06 33 37.7 19.2   704 – Lincoln Laboratory ETS, New Mexico MPS 165729
